Location: Errabaliem
(16.8108°N, 80.4255°E)
Time: 13:28:36
(UTC+00:00)

Delta 2 Rocket - Pass Details

Date: 05 August 2024
Orbit: 890 x 1677 km, 26.4° (Epoch: 11 September)

Event Time Altitude Azimuth Distance (km) Brightness Sun altitude
Rises 14:11:28 0° 234° (SW) 3,649 7.4 -14.9°
Reaches altitude 10° 14:13:59 10° 230° (SW) 2,777 6.7 -15.5°
Maximum altitude 14:20:36 57° 152° (SSE) 1,313 4.4 -16.9°
Enters shadow 14:26:27 19° 80° (E) 2,624 5.8 -18.2°
